DW2806 Weather Reports


time (UTC)temp
C
wind
direction
speed
KPH
gust
KPH
rain 1hr
cm
rain 24hr
cm
rain mn
cm
humidity
%
barometer
mb
20260901093035 18 118 0.0 0.0 0.00 0.00 0.00 87 1025.7
20260901091534 18 118 0.0 0.0 0.00 0.00 0.00 87 1025.7
20260901090040 18 118 0.0 0.0 0.00 0.00 0.00 87 1025.7
20260901084534 18 118 0.0 0.0 0.00 0.00 0.00 86 1025.7
20260901083033 18 118 0.0 0.0 0.00 0.00 0.00 86 1025.7
20260901081533 18 118 0.0 0.0 0.00 0.00 0.00 85 1025.7
20260901080032 18 118 0.0 0.0 0.00 0.00 0.00 85 1025.7
20260901074533 18 118 0.0 0.0 0.00 0.00 0.00 84 1025.7
20260901073028 18 118 0.0 0.0 0.00 0.00 0.00 84 1025.7
20260901071529 18 118 0.0 0.0 0.00 0.00 0.00 84 1025.7
20260901070027 18 118 0.0 0.0 0.00 0.00 0.00 85 1025.7
20260901064535 18 117 0.0 0.0 0.00 0.00 0.00 85 1025.7
20260901063029 18 117 0.0 0.0 0.00 0.00 0.00 86 1025.7
20260901061525 18 117 0.0 0.0 0.00 0.00 0.00 87 1025.7
20260901060024 18 117 0.0 0.0 0.00 0.00 0.00 87 1025.7
20260901054525 18 117 0.0 0.0 0.00 0.00 0.00 88 1025.7
20260901053022 18 117 0.0 0.0 0.00 0.00 0.00 88 1025.7
20260901051522 18 117 0.0 0.0 0.00 0.00 0.00 88 1025.7
20260901050022 18 117 0.0 0.0 0.00 0.00 0.00 88 1025.7
20260901044520 18 117 0.0 0.0 0.00 0.00 0.00 89 1025.7
20260901043023 18 117 0.0 0.0 0.00 0.00 0.00 89 1025.7
20260901041518 18 117 0.0 0.0 0.00 0.00 0.00 89 1025.7
20260901040018 18 117 0.0 0.0 0.00 0.00 0.00 90 1025.7
20260901034515 18 117 0.0 0.0 0.00 0.00 0.00 90 1025.7
20260901033015 17 117 0.0 0.0 0.00 0.00 0.00 90 1025.7
20260901031514 17 117 0.0 0.0 0.00 0.00 0.00 90 1025.7
20260901030014 17 117 0.0 0.0 0.00 0.00 0.00 90 1025.7
20260901024525 17 117 0.0 0.0 0.00 0.00 0.00 89 1025.7
20260901023014 17 117 0.0 0.0 0.00 0.00 0.00 89 1025.7
20260901021516 17 117 0.0 0.0 0.00 0.00 0.00 88 1025.7
20260901020012 17 117 0.0 0.0 0.00 0.00 0.00 88 1025.7
20260901014512 17 117 0.0 0.0 0.00 0.00 0.00 87 1025.7
20260901013012 17 117 0.0 0.0 0.00 0.00 0.00 87 1025.7
20260901011512 17 117 0.0 0.0 0.00 0.00 0.00 86 1025.7
20260901010013 17 117 0.0 0.0 0.00 0.00 0.00 86 1025.7
20260901004527 17 117 0.0 0.0 0.00 0.00 0.00 85 1025.7
20260901003009 17 117 0.0 0.0 0.00 0.00 0.00 84 1025.7
20260901001522 18 117 0.0 0.0 0.00 0.00 0.00 83 1025.7
20260901000014 18 117 0.0 0.0 0.00 0.00 0.00 83 1025.7
20260831234511 18 117 0.0 0.0 0.00 0.00 0.00 82 1025.7
20260831233007 18 117 0.0 0.0 0.00 0.00 0.00 80 1025.7
20260831231507 19 117 0.0 0.0 0.00 0.00 0.00 79 1025.7
20260831230008 20 117 0.0 0.0 0.00 0.00 0.00 77 1025.7
20260831224506 20 117 0.0 0.0 0.00 0.00 0.00 75 1025.7
20260831223006 20 117 0.0 0.0 0.00 0.00 0.00 73 1025.7
20260831221509 20 116 0.0 1.6 0.00 0.00 0.00 71 1025.7
20260831220005 20 167 0.0 0.0 0.00 0.00 0.00 71 1025.7
20260831214512 20 156 0.0 8.0 0.00 0.00 0.00 72 1025.7
20260831213003 21 271 0.0 6.4 0.00 0.00 0.00 72 1025.7
20260831211503 21 125 0.0 0.0 0.00 0.00 0.00 72 1025.7
20260831210003 21 125 0.0 6.4 0.00 0.00 0.00 71 1025.7
20260831204501 22 272 0.0 6.4 0.00 0.00 0.00 69 1025.7
20260831203001 22 135 0.0 6.4 0.00 0.00 0.00 68 1025.7
20260831201503 22 141 0.0 9.7 0.00 0.00 0.00 67 1025.7
20260831200105 23 148 0.0 1.6 0.00 0.00 0.00 65 1025.7
20260831194559 23 158 0.0 1.6 0.00 0.00 0.00 67 1025.7
20260831193058 23 150 0.0 8.0 0.00 0.00 0.00 68 1025.7
20260831191556 23 294 0.0 12.9 0.00 0.00 0.00 68 1025.7
20260831190112 23 273 0.0 6.4 0.00 0.00 0.00 67 1025.7
20260831184555 23 281 0.0 0.0 0.00 0.00 0.00 69 1025.7
20260831183100 23 289 0.0 0.0 0.00 0.00 0.00 68 1025.7
20260831181553 23 142 0.0 3.2 0.00 0.00 0.00 67 1025.7
20260831180050 23 297 0.0 0.0 0.00 0.00 0.00 64 1025.7
20260831174549 24 298 0.0 9.7 0.00 0.00 0.00 64 1025.7
20260831173048 25 271 0.0 3.2 0.00 0.00 0.00 63 1025.7
20260831171547 26 232 0.0 8.0 0.00 0.00 0.00 59 1025.7
20260831170043 25 256 0.0 3.2 0.00 0.00 0.00 55 1025.7
20260831164549 25 181 0.0 0.0 0.00 0.00 0.00 54 1025.7
20260831163044 25 216 0.0 0.0 0.00 0.00 0.00 56 1025.7
20260831161542 25 180 0.0 8.0 0.00 0.00 0.00 56 1025.7
20260831160045 25 312 0.0 0.0 0.00 0.00 0.00 54 1025.7
20260831154542 25 26 0.0 6.4 0.00 0.00 0.00 57 1025.7
20260831153036 25 261 0.0 0.0 0.00 0.00 0.00 58 1025.7
20260831151537 24 261 0.0 0.0 0.00 0.00 0.00 54 1025.7
20260831150030 23 261 0.0 1.6 0.00 0.00 0.00 60 1025.7
20260831144526 23 265 0.0 6.4 0.00 0.00 0.00 59 1025.7
20260831143027 22 224 0.0 6.4 0.00 0.00 0.00 57 1025.7
20260831141521 22 141 0.0 1.6 0.00 0.00 0.00 65 1025.7
20260831140025 21 139 0.0 0.0 0.00 0.00 0.00 70 1025.7
20260831134508 20 139 0.0 0.0 0.00 0.00 0.00 71 1025.7
20260831133004 18 141 0.0 0.0 0.00 0.00 0.00 74 1025.7
20260831131503 18 139 0.0 0.0 0.00 0.00 0.00 81 1025.7
20260831130002 17 139 0.0 0.0 0.00 0.00 0.00 84 1025.7
20260831124604 16 139 0.0 0.0 0.00 0.00 0.00 89 1025.7
20260831123100 16 139 0.0 0.0 0.00 0.00 0.00 91 1025.7
20260831121558 16 139 0.0 3.2 0.00 0.00 0.00 93 1025.7
20260831120059 15 137 0.0 0.0 0.00 0.00 0.00 94 1025.7
20260831114555 15 137 0.0 0.0 0.00 0.00 0.00 93 1025.7
20260831113111 15 137 0.0 0.0 0.00 0.00 0.00 93 1025.7
20260831111552 15 137 0.0 0.0 0.00 0.00 0.00 93 1025.7
20260831110052 15 137 0.0 0.0 0.00 0.00 0.00 93 1025.7
20260831104550 15 137 0.0 0.0 0.00 0.00 0.00 93 1025.7
20260831103052 15 137 0.0 0.0 0.00 0.00 0.00 92 1025.7
20260831101550 15 137 0.0 0.0 0.00 0.00 0.00 92 1025.7
20260831100046 15 137 0.0 0.0 0.00 0.00 0.00 92 1025.7
20260831094555 15 137 0.0 0.0 0.00 0.00 0.00 92 1025.7